Retour au catalogue

FENGYUN 1C DEB

ActifSSO
NORAD 31365·DEBRIS·🇨🇳 China

Lancé May 10, 1999 depuis Taiyuan Satellite Launch Center

Loading…

Prochains Passages (prochaines 24 heures)

TLE

FraisSource: Space-Track

Époque: Sep 13, 2026, 22:55 UTC

1 31365U 99025BRV 26256.95537179  .00003925  00000-0  11311-2 0  9998
2 31365  98.6694 351.9692 0041208 117.8520 242.6855 14.44784223  5899

Suivez FENGYUN 1C DEB en temps réel avec AllMySat

Download on the App Store